Location: Northam
(31.6525°S, 116.6655°E)
Time: 10:49:53
(UTC+08:00)

STARLINK-1927 - Pass Details

Date: 17 January 2021
Orbit: 434 x 436 km, 53.1° (Epoch: 04 March)

Event Time Altitude Azimuth Distance (km) Brightness Sun altitude
Rises 19:46:48 0° 211° (SSW) 2,433 8.1 -5.6°
Reaches altitude 10° 19:49:18 10° 195° (SSW) 1,543 6.6 -6.1°
Maximum altitude 19:52:05 22° 142° (SE) 981 4.8 -6.6°
Drops below altitude 10° 19:54:45 10° 88° (E) 1,467 5.3 -7.1°
Enters shadow 19:55:14 - 84° (E) 1,625 5.5 -7.2°
